SL-16 DEB

Satellite information

Favourite Embed

Satellite Type and Status

DEBRISIN ORBIT

Key statistics

Satellite SL-16 DEB at a glance.

Uptime

11951

Days in orbit

Revolutions

≈ 13.7

Per day

Orbit

LEO

Low Earth Orbit

Inclination

71.0

Latest

Satellite identification and parameters

Extended collection of information and parameters for SL-16 DEB.

Object identification

Identified? True

Debris? True

Object name: SL-16 DEB

International designator: 1993-016AD

Object number (NORAD): 22619

Object ID (CCSDS): 22619

Country: COMMONWEALTH OF INDEPENDENT STATES (CIS)

Current information (Y/N): Y

RCS size: MEDIUM

Orbital parameters

Period: 104.814 minutes

Inclination: 71.0004 deg

SMA: 7363.863 km

Apoapsis: 1121.422 km

Periapsis: 850.034 km

RAAN: 244.9257 deg

Eccentricy: 0.01842705

Argument of periapsis: 47.0205 deg

Mean anomaly: 334.9638 deg

Mean motion: 13.73865424 rev/day

Mean motion (dot): 0.00000048 rev/day2

B* drag term: 0.000085291915 1/REarth

Two-line elements (TLE)

Creation date: Dec. 14, 2025, 3:07 a.m.

Reference frame: TEME

Reference center: EARTH

Epoch: Dec. 13, 2025, 4:37 p.m. UTC

TLE line 0: 0 SL-16 DEB

TLE line 1: 1 22619U 93016AD 25347.69259297 .00000048 00000-0 85292-4 0 9991

TLE line 2: 2 22619 71.0004 244.9257 0184270 47.0205 334.9638 13.73865424639622

Live tracking on map

Real-time ground track for satellite SL-16 DEB.

In-orbit conjunctions

A list of the most updated potential collisions computed for object SL-16 DEB.

Target Orbit TCA Probability of collision Miss distance Type
SCOUT X-4 R/B LEO 2025-07-06 13:26:10 0.0002668 344.0 (m) ROCKET BODY
TANSEI 1 (MS-T1) LEO 2024-08-19 01:50:57 0.0001186902 479.0 (m) PAYLOAD

Associated space launch

Second generation ELING satellite

SL-16 DEB was lifted into orbit during the mission ‘Zenit-2 | Tselina-2 13’, on board a Zenit-2 space rocket.

The launch took place on March 26, 1993, 2:21 a.m. from 45/1.

For more information about the launch, click the button.

Launch to space Zenit-2 | Tselina-2 13
Zenit-2 | Tselina-2 13

Agency: N/A

Status: Launch Successful

Launch date: March 26, 1993, 2:21 a.m. UTC

Rocket: Zenit-2

Launch pad: 45/1

Location: Baikonur Cosmodrome, Republic of Kazakhstan

...

Latest news about this satellite

There are no fresh news available about this satellite. Check back as we update our databases every day.


Newsletter sign-up

Weekly statistics, charts and insights to help you stay on top of the space industry.